Location: Alincthun
(50.7310°N, 1.8022°E)
Time: 16:04:02
(UTC+00:00)

Cosmos 1400 Rocket - Pass Details

Date: 17 February 2020
Orbit: 522 x 568 km, 81.2° (Epoch: 29 March)

Event Time Altitude Azimuth Distance (km) Brightness Sun altitude
Rises 05:52:54 0° 180° (S) 2,696 6.4 -11.6°
Reaches altitude 10° 05:55:03 10° 176° (S) 1,816 5.6 -11.2°
Maximum altitude 05:58:59 58° 98° (E) 653 3.6 -10.6°
Drops below altitude 10° 06:03:01 10° 19° (NNE) 1,859 5.7 -10.0°
Sets 06:05:14 0° 16° (NNE) 2,766 6.5 -9.6°
